Location: Nied?wied?
(53.3665°N, 14.8184°E)
Time: 23:21:30
(UTC+00:00)

SeaSat 1 - Pass Details

Date: 03 March 2021
Orbit: 744 x 747 km, 108.0° (Epoch: 12 April)

Event Time Altitude Azimuth Distance (km) Brightness Sun altitude
Rises 19:31:15 0° 29° (NNE) 3,204 5.7 -25.4°
Reaches altitude 10° 19:33:36 10° 23° (NNE) 2,276 5.0 -25.7°
Maximum altitude 19:38:16 44° 313° (NW) 1,034 3.5 -26.3°
Drops below altitude 10° 19:42:56 10° 243° (WSW) 2,266 5.3 -26.9°
Sets 19:45:16 0° 237° (WSW) 3,187 6.1 -27.2°
